RH
96 92 92 93 92 92 89 86 88 89 86 78 71 72 77 84 89 91 97 98 94 93 91 90 92 94 94 92 90 84 75 71 71 71 74 78 79 78 80 80 79 80 80 78 78 78 76 75 74 74 73 71 73 74 74 74 76 76 75 75 74 71 69 67 67 71 73 72 69 67 67 68 71 75 78 77 77 76 74 74 73 73 73 74 76
97 94 88 86 83 89 93 93 94 95 94 88 81 84 88 92 95 95 98 96 91 94 94 89 88 89 92 92 84 75 69 67 69 73 77 79 78 77 78 78 76 77 77 76 78 76 75 75 73 74 74 74 75 75 75 75 75 73 72 72 69 68 67 65 66 68 71 69 69 70 65 61 60 63 70 73 77 78 76 80 80 75 78 81 79
95 95 92 90 88 93 97 96 93 86 88 94 93 95 96 95 94 95 98 93 87 93 92 86 87 87 88 88 80 72 70 68 68 71 77 80 79 78 79 79 76 74 74 74 75 76 77 75 74 76 76 76 75 74 74 72 71 70 69 68 68 67 65 63 63 66 72 71 72 74 67 62 58 54 60 71 79 78 77 81 81 77 80 85 88
91 91 88 90 92 95 98 98 88 77 84 94 95 98 98 97 97 98 98 93 90 93 89 84 88 90 89 83 75 72 71 69 69 72 76 78 79 79 80 80 77 74 74 73 72 74 77 77 78 79 79 79 77 74 73 70 68 67 66 68 69 68 66 64 64 67 73 72 73 75 69 66 63 56 60 68 71 76 81 81 77 78 81 83 88
85 86 84 85 88 90 94 96 88 84 92 95 93 96 98 97 98 98 98 99 94 88 84 85 89 91 88 79 73 73 69 67 70 72 74 76 78 80 81 80 78 77 77 77 75 75 78 80 81 82 81 81 78 75 74 71 70 68 68 69 70 70 71 69 68 68 70 71 74 80 80 75 69 64 67 68 63 69 82 86 80 77 80 83 87
78 82 81 81 85 87 91 94 91 92 98 97 94 96 97 95 94 96 99 98 89 83 82 83 87 87 80 72 71 72 69 69 70 72 75 77 79 81 83 83 79 81 83 80 79 78 80 82 82 81 80 79 78 75 75 74 72 71 70 71 70 74 78 75 70 67 69 71 73 83 90 88 84 82 79 74 65 62 70 80 81 74 71 74 78
75 78 77 78 82 85 89 92 93 95 99 99 97 97 98 97 95 98 100 91 81 82 80 76 82 85 75 67 69 69 68 71 73 75 78 79 81 82 84 85 82 83 84 81 81 81 82 84 83 81 78 77 77 75 75 75 73 73 73 74 74 77 78 75 71 69 71 73 75 83 88 88 91 92 87 83 79 71 65 70 77 78 75 70 69
71 76 76 76 79 83 87 91 94 97 100 100 99 99 97 97 99 99 99 94 87 85 79 74 81 83 75 70 71 70 71 75 77 78 80 81 82 81 81 84 84 83 83 83 83 81 82 83 81 79 78 77 76 73 75 76 74 76 77 78 79 77 76 75 75 76 76 76 76 81 85 84 85 88 88 89 88 82 75 68 67 75 82 78 71
65 69 74 75 78 82 87 93 95 97 99 100 100 98 96 97 100 99 99 97 91 88 84 79 81 80 74 71 71 70 71 75 78 79 81 81 80 79 80 83 84 82 82 83 81 77 80 82 81 80 80 80 77 74 78 80 79 80 79 79 80 77 75 77 80 81 79 79 77 77 81 82 80 80 81 84 87 86 84 75 66 72 79 79 75
57 61 69 73 78 84 89 93 94 94 96 97 97 98 99 99 99 98 98 95 90 89 90 84 80 78 74 73 73 72 74 77 79 80 79 78 77 77 77 78 80 81 82 83 81 79 81 83 83 83 83 82 82 82 85 86 84 83 81 80 81 79 77 78 84 84 80 80 80 77 79 82 79 76 74 79 86 86 85 78 69 75 76 75 79
54 57 63 69 78 84 87 90 94 96 95 93 91 95 100 97 94 95 94 93 88 86 90 87 81 77 75 75 76 76 78 79 78 77 75 74 74 72 70 73 79 82 81 81 83 84 85 86 85 84 84 86 88 89 90 89 86 85 82 80 79 79 77 77 83 86 81 79 80 78 78 80 79 78 76 81 87 87 89 82 73 78 77 70 75
54 57 60 68 79 82 82 85 91 97 98 94 93 97 98 91 89 93 92 92 89 83 86 85 79 78 78 78 78 77 77 77 76 75 73 71 70 67 64 67 75 80 79 81 85 87 86 87 88 87 87 90 91 91 91 90 88 85 83 82 80 78 77 78 82 87 85 83 82 81 80 78 78 82 85 87 90 92 93 86 74 78 80 70 70
58 60 65 70 78 79 79 82 86 93 97 96 95 97 95 88 88 90 90 91 90 87 84 80 77 80 81 81 81 80 79 78 77 75 71 69 68 68 68 69 74 78 80 84 88 88 89 89 90 91 91 92 91 91 91 90 89 86 84 85 84 81 81 82 84 88 88 88 87 85 83 81 82 86 88 88 91 92 92 87 77 76 79 70 65
61 62 67 69 74 77 76 78 80 89 97 95 95 96 92 89 90 90 88 87 87 85 81 79 80 82 82 83 83 82 80 79 78 75 72 70 73 77 77 75 76 78 82 87 90 91 91 90 91 94 94 92 91 92 92 90 89 88 85 85 85 85 86 86 87 89 89 89 89 87 85 84 85 87 87 89 94 94 94 93 88 80 75 67 62
62 62 65 66 71 75 74 72 74 86 94 92 92 94 90 89 90 88 87 86 83 81 81 82 84 83 82 83 83 82 81 80 81 80 78 77 80 82 79 77 79 83 87 89 90 91 90 88 91 96 96 92 91 92 92 89 89 89 85 85 86 86 87 87 88 89 90 90 90 89 87 85 87 88 87 90 94 94 96 99 98 91 82 72 64
63 66 67 67 72 74 71 69 70 81 88 85 87 89 88 88 88 85 83 83 82 82 83 84 84 84 83 84 85 84 83 82 83 84 84 84 84 82 79 80 84 87 91 90 88 88 87 86 90 94 92 89 90 91 90 89 90 89 85 84 85 85 85 86 88 89 90 92 90 89 88 86 88 90 89 90 91 92 96 97 96 95 93 85 74
65 67 68 71 74 73 71 69 70 75 79 81 84 84 84 85 83 82 82 82 83 83 84 84 84 84 85 86 85 83 82 83 85 87 88 87 84 80 81 87 88 88 89 87 84 84 87 88 88 88 88 89 89 88 87 88 87 86 84 83 83 82 82 85 88 90 91 91 88 86 86 86 88 89 89 90 91 92 94 93 92 91 92 93 88
66 69 71 74 76 74 72 71 71 69 71 78 82 80 81 82 79 79 82 82 82 83 83 84 83 84 86 85 83 82 82 83 85 86 87 85 81 80 85 90 89 88 87 84 82 84 86 87 85 83 83 84 84 82 81 81 82 83 83 80 79 80 82 84 87 90 90 88 83 80 81 83 84 86 87 88 90 92 91 91 93 92 91 94 94
68 71 73 74 76 75 72 72 72 67 67 74 77 76 77 79 79 80 81 81 81 81 81 83 84 84 84 83 82 82 84 85 84 83 84 82 80 83 89 89 87 87 85 81 80 80 80 79 77 76 75 75 77 77 76 74 76 80 79 77 79 82 83 85 85 87 88 85 80 78 81 82 81 80 82 83 85 88 90 89 91 92 93 95 95
69 71 73 74 75 74 72 72 72 70 71 73 75 77 79 80 80 80 80 80 80 80 81 83 84 84 83 82 82 83 83 84 83 83 84 83 82 88 91 88 87 87 83 79 75 71 69 69 68 67 67 69 72 75 74 70 70 74 78 80 83 82 82 82 82 83 86 85 82 80 81 82 79 75 75 77 80 83 84 85 89 91 91 93 95
67 68 71 74 75 74 74 75 74 75 76 75 76 79 80 80 80 79 79 79 80 80 81 82 84 84 84 83 83 84 83 84 85 85 85 84 85 89 90 89 88 83 78 76 71 65 64 65 65 64 63 65 68 72 73 71 70 73 80 84 83 79 78 79 79 80 83 84 84 81 79 79 77 74 73 75 76 77 78 80 85 88 87 90 95
65 64 67 71 74 75 77 77 77 77 77 75 77 80 80 79 78 78 78 78 78 79 80 82 82 83 84 83 83 85 85 86 86 85 85 85 87 89 89 89 86 79 75 72 68 64 62 61 62 62 63 63 65 70 73 74 73 74 77 80 79 76 75 76 76 77 79 82 84 82 80 80 78 75 75 73 71 73 75 77 82 86 86 87 92
63 63 65 69 72 75 79 79 78 78 78 76 78 79 79 78 77 76 76 75 76 77 79 81 81 81 84 83 82 83 85 84 83 84 87 89 89 88 86 85 81 78 74 68 65 62 59 60 62 64 64 64 65 67 69 71 71 70 71 72 73 72 73 74 75 76 78 82 85 83 81 81 80 79 78 74 73 73 73 75 77 80 83 82 84
63 65 68 71 74 77 79 79 78 77 76 76 77 77 77 76 74 74 74 73 73 75 78 80 81 84 86 84 81 83 84 83 85 90 91 89 87 85 82 80 78 76 73 67 62 60 61 63 62 61 64 66 64 61 62 66 67 67 66 66 67 68 69 72 73 75 79 83 86 84 81 81 80 80 80 79 78 77 73 74 73 71 74 75 74
66 69 73 75 76 78 78 78 77 75 75 76 76 75 74 73 73 73 73 72 72 76 79 79 81 85 85 82 81 84 86 85 88 92 90 87 86 84 79 76 75 74 72 68 63 61 63 61 56 59 67 70 66 61 61 62 63 65 66 65 65 65 66 68 69 73 79 84 87 87 84 81 79 79 80 80 80 78 75 76 76 70 68 69 67
73 74 76 77 77 78 77 78 77 74 74 74 73 73 72 71 73 73 73 72 73 77 79 80 82 84 82 80 82 86 89 90 91 91 88 85 85 82 77 73 71 71 70 67 63 64 65 63 63 69 73 73 73 72 71 67 63 64 66 66 65 64 65 66 66 70 77 81 85 88 87 83 80 79 79 80 79 78 76 77 80 77 71 67 65
76 77 77 76 77 77 77 78 76 73 73 72 71 71 71 72 74 73 73 74 75 77 78 80 82 83 81 82 84 88 91 92 93 90 86 86 83 78 74 69 67 67 65 62 64 67 71 72 74 76 76 76 77 77 75 72 66 63 64 65 64 62 62 64 65 67 72 77 80 84 87 88 85 82 80 79 77 76 75 75 79 82 77 71 67
75 77 77 75 76 77 76 77 75 72 72 71 71 71 71 74 74 73 74 76 77 78 80 82 83 82 81 82 85 89 91 91 90 87 84 84 80 76 72 68 67 66 62 61 65 70 73 74 74 75 76 76 75 73 73 72 68 64 63 65 64 62 61 63 65 65 66 70 74 77 83 89 90 85 80 77 75 74 73 73 76 81 80 76 70
75 76 76 75 76 76 75 74 72 72 72 72 73 73 73 73 72 73 76 78 77 78 80 82 82 81 80 82 86 90 91 90 87 84 81 78 74 72 71 68 67 67 64 63 65 68 69 70 71 73 75 73 72 73 72 71 68 64 62 63 62 61 61 62 63 63 61 61 64 69 76 84 87 87 83 78 75 74 73 72 74 79 80 77 73
76 76 75 74 75 74 73 73 72 72 74 75 75 74 73 72 71 74 76 77 78 78 79 81 83 81 80 82 85 86 85 84 83 81 77 72 70 69 68 67 67 66 66 65 66 68 68 67 68 71 73 72 70 70 69 67 66 64 61 60 59 57 58 59 59 59 58 56 55 59 66 74 81 84 84 83 78 74 72 71 70 72 76 76 74
75 76 74 73 73 73 73 72 71 72 75 78 77 75 75 74 74 74 75 76 78 79 80 82 83 82 79 80 82 81 80 79 77 76 72 69 69 69 68 68 68 67 67 67 68 70 69 67 68 70 73 73 68 65 65 64 62 61 59 57 56 55 56 58 59 58 57 56 55 55 59 68 77 79 78 81 83 75 69 69 68 67 70 72 72
75 75 73 72 74 77 81 80 78 79 82 82 80 78 78 78 77 77 77 80 81 81 81 80 77 76 75 74 75 74 73 71 69 69 67 66 67 68 68 69 69 67 67 68 70 70 68 68 68 68 71 73 68 63 64 64 62 60 58 54 54 55 55 57 61 62 60 58 57 55 57 64 74 76 70 72 80 76 65 63 65 65 67 67 68
81 74 71 74 77 80 83 82 80 82 83 82 80 79 79 80 80 81 81 83 83 81 79 76 72 70 69 68 68 67 65 65 64 64 64 65 66 67 68 68 67 66 68 70 70 67 66 66 66 66 70 71 66 64 66 66 64 62 60 56 54 56 56 57 61 65 66 64 59 56 56 62 70 73 66 62 69 69 59 55 57 58 62 64 64
82 74 71 75 75 75 77 77 75 77 78 78 77 77 78 78 79 80 81 81 80 77 73 70 68 67 65 65 64 62 61 62 63 64 64 65 66 66 66 66 65 67 70 70 69 66 65 64 62 62 66 66 64 66 67 65 63 62 61 60 59 58 57 57 60 64 66 67 66 60 55 59 66 68 64 60 62 62 54 50 52 53 54 58 61
76 73 73 73 72 73 74 73 72 74 76 76 74 73 73 73 74 75 76 77 76 73 69 66 65 63 62 62 61 61 62 62 63 65 65 66 66 65 65 65 65 67 67 66 66 67 66 65 61 60 63 63 63 66 66 63 61 60 58 58 60 60 58 57 58 60 62 65 69 66 59 57 61 62 60 59 59 59 55 52 52 51 49 52 58
70 72 73 72 72 73 72 70 70 70 70 70 70 69 68 68 69 70 72 74 73 70 66 64 62 59 59 58 57 60 63 63 63 65 65 65 66 65 66 65 64 64 63 63 64 64 63 63 61 59 60 61 61 63 64 62 59 56 53 53 55 57 57 59 58 57 59 59 59 61 62 61 59 55 55 58 59 59 59 57 53 52 49 49 53
67 69 72 74 74 71 68 67 66 65 66 67 66 65 66 67 67 67 69 71 69 67 65 63 60 59 58 56 56 60 64 63 63 64 64 64 65 64 63 62 61 62 62 62 64 65 64 64 62 59 58 59 60 61 62 60 56 56 56 52 51 53 54 56 57 57 58 57 51 50 55 59 58 53 52 59 63 62 63 62 57 53 49 45 48
66 66 69 74 73 68 65 65 63 63 65 65 63 63 65 66 64 63 64 65 65 65 63 60 60 59 59 58 59 61 62 62 62 63 63 63 62 60 59 57 58 58 57 58 60 62 63 63 62 60 58 56 55 56 61 62 55 54 57 51 47 51 52 52 53 54 56 56 52 49 50 54 57 55 53 59 65 66 65 64 60 55 50 46 45
66 63 64 68 68 65 64 65 64 64 64 63 63 63 63 61 61 60 59 59 60 61 60 59 60 60 59 59 59 59 59 60 62 64 63 62 60 58 57 55 54 53 52 53 55 58 61 63 65 66 64 59 52 45 51 61 59 53 54 49 44 47 49 48 48 50 51 54 54 51 50 50 52 53 53 57 62 65 63 62 60 56 54 53 50
63 61 62 66 66 65 65 65 64 65 64 62 62 61 61 61 61 60 60 60 59 59 59 60 59 59 59 59 59 59 60 61 64 64 62 59 57 55 54 51 48 48 50 51 53 56 59 60 62 65 67 67 61 46 38 48 57 59 58 55 51 49 47 45 45 46 47 49 52 52 50 48 48 50 52 53 55 58 58 56 56 54 52 52 50
62 62 63 67 68 66 64 63 65 65 64 62 61 61 62 64 64 65 65 63 61 60 60 60 60 60 60 59 60 62 62 62 62 61 58 56 55 54 52 49 48 50 53 55 54 53 53 52 52 55 56 55 57 51 39 34 45 57 61 60 59 57 51 46 44 45 45 47 51 54 51 48 48 48 49 49 49 50 52 51 49 48 47 47 47
64 65 66 68 67 64 63 64 66 65 63 62 62 63 63 64 66 69 69 66 63 63 63 61 60 60 60 60 62 63 62 61 60 59 57 56 55 53 51 49 51 54 54 53 52 50 49 49 49 52 54 48 43 42 39 34 36 47 56 59 59 56 53 49 47 46 47 48 52 54 52 50 49 49 49 49 48 47 48 47 44 43 44 44 44
70 69 70 68 64 62 65 66 66 65 63 62 62 64 66 67 70 72 72 69 67 64 62 61 60 61 63 64 64 63 61 60 59 56 54 53 52 52 51 52 54 54 52 49 47 46 46 47 46 48 53 55 49 40 37 38 37 40 47 55 57 55 53 51 49 48 49 52 55 54 53 51 51 51 50 49 48 47 46 45 42 40 41 43 43
72 71 72 68 63 64 67 67 65 63 63 63 63 65 69 70 72 73 73 71 67 63 62 62 63 65 65 63 60 59 59 59 57 54 52 51 51 50 51 51 50 47 46 44 42 42 42 42 43 44 44 49 52 46 39 37 36 36 41 48 52 54 55 54 52 52 53 55 55 54 52 51 50 50 50 49 48 47 45 44 42 39 39 41 42
71 73 72 67 64 65 66 65 62 60 61 63 64 68 72 72 73 74 73 70 67 66 67 67 66 64 61 58 57 57 56 54 52 50 48 47 46 45 45 45 44 41 39 38 37 37 37 36 38 42 43 44 49 51 48 43 39 36 38 42 45 47 50 51 52 53 52 51 52 52 52 51 50 49 48 47 47 46 44 42 41 40 39 39 41
71 73 71 65 64 65 65 63 60 58 59 62 65 70 74 74 74 74 73 71 70 70 69 68 64 59 56 56 55 54 52 50 47 46 44 44 43 41 40 39 39 38 37 35 33 32 33 35 36 38 42 45 48 53 56 55 50 46 47 50 52 51 49 49 50 51 51 50 51 52 50 50 49 48 47 46 45 44 43 42 40 40 40 39 40
71 71 68 63 62 64 63 60 58 57 58 62 67 73 77 76 75 73 71 71 71 69 66 62 59 55 54 55 54 52 50 46 42 39 39 40 38 37 37 37 36 35 33 32 32 32 31 32 34 34 39 44 46 51 57 59 57 53 50 50 52 53 54 54 54 56 56 54 50 47 46 46 46 45 44 44 43 43 43 42 41 40 41 40 39
73 73 68 62 62 63 61 59 58 59 62 66 70 75 76 74 72 70 70 70 69 66 63 60 56 53 52 53 53 51 46 42 41 41 42 41 38 38 45 49 48 44 38 31 29 31 30 29 29 29 30 33 40 49 57 60 59 56 52 50 51 52 54 53 51 53 56 53 44 40 40 40 42 42 41 41 41 41 42 43 42 41 41 41 40
72 72 66 61 62 62 58 56 57 61 65 69 72 73 70 66 63 64 68 69 66 63 59 56 54 53 52 53 52 47 42 42 48 53 53 51 49 49 54 56 53 52 49 42 38 37 36 35 36 34 31 31 36 41 44 47 48 46 43 44 49 53 54 50 45 46 49 45 38 33 32 33 36 38 39 38 40 41 40 41 42 42 42 43 42
72 72 67 64 63 61 56 54 57 61 65 68 68 67 64 61 60 64 68 68 64 60 55 54 54 53 52 50 47 43 43 47 53 55 53 52 54 55 56 53 51 50 49 48 48 49 48 46 45 41 34 31 29 25 22 24 26 24 20 23 31 40 44 42 39 38 38 35 31 29 29 28 29 31 33 34 36 38 39 39 40 41 42 44 44
74 73 69 67 66 64 59 56 57 59 61 64 65 63 63 63 64 67 69 67 61 57 55 55 53 51 49 47 45 45 48 52 52 51 50 50 50 51 50 47 47 49 47 45 45 47 47 43 36 28 22 18 16 14 14 15 15 14 15 20 27 33 36 36 35 35 33 30 27 26 26 25 24 25 27 28 29 32 34 36 37 38 40 42 45
Wind_Speed
7 17 18 12 9 7 7 9 11 11 10 12 13 13 12 12 12 11 9 9 10 11 11 11 10 8 9 11 12 10 10 9 9 9 8 8 7 6 6 4 4 4 4 4 5 5 6 7 7 8 8 9 10 11 12 13 14 15 15 16 16 17 17 16 16 17 17 17 17 18 20 20 19 19 20 21 20 21 22 22 21 21 22 22 23
6 14 19 16 12 13 13 12 12 9 6 7 8 9 9 10 11 10 10 10 11 11 10 10 8 9 11 13 13 10 9 10 10 9 9 9 8 6 5 4 4 4 4 4 4 5 5 6 7 8 8 9 10 11 12 13 14 14 15 16 16 16 17 17 17 15 15 15 14 15 16 17 17 17 20 20 20 21 23 22 22 22 22 22 23
9 10 14 16 14 15 17 18 17 14 12 9 7 8 8 11 12 11 11 11 11 11 11 10 7 11 14 12 10 8 9 10 10 9 10 9 8 6 5 5 4 4 4 4 4 4 5 6 7 7 8 9 10 11 11 12 13 13 14 15 16 17 17 17 16 13 14 15 13 11 10 11 13 12 11 13 16 19 22 23 24 25 24 23 24
12 12 14 15 14 13 15 17 19 21 19 12 9 9 8 11 11 9 10 10 10 10 9 9 7 10 12 9 9 11 11 11 10 9 8 7 6 5 5 5 4 3 3 4 4 5 5 6 7 7 8 9 10 10 11 12 12 13 14 15 16 16 17 17 17 14 14 13 10 8 9 9 9 8 10 12 14 16 20 22 24 25 26 25 26
14 15 15 16 16 16 16 15 13 16 16 12 11 10 9 11 11 9 9 9 10 11 10 10 7 9 10 10 11 12 11 10 9 8 7 6 6 5 5 4 4 3 3 4 4 5 5 6 6 7 8 8 9 10 10 12 12 13 14 14 15 15 16 18 17 15 13 12 9 8 8 7 7 11 14 13 12 12 15 17 20 23 24 25 26
12 15 15 14 16 19 20 17 13 14 15 14 12 9 8 11 12 11 10 9 11 12 12 13 10 12 10 10 10 10 10 9 8 7 7 6 5 5 4 4 4 3 3 4 4 4 5 5 6 6 7 8 9 9 10 11 12 13 13 14 15 16 16 17 17 16 14 12 9 8 9 10 10 13 12 9 11 13 13 14 17 20 20 22 24
11 13 14 12 16 21 21 20 18 18 17 15 13 10 10 11 12 12 10 12 14 13 12 14 12 15 10 8 8 9 9 9 7 7 6 5 5 4 4 4 3 4 3 4 4 5 5 5 6 7 7 8 8 9 10 11 12 13 14 14 15 16 15 15 16 17 15 12 10 10 13 15 15 14 11 9 10 12 13 13 15 15 16 19 22
12 13 14 13 15 19 22 21 19 18 17 16 14 11 13 13 11 10 9 11 14 13 12 12 12 14 8 8 8 8 9 9 7 5 5 4 4 4 4 4 3 4 4 4 5 5 6 6 6 7 8 8 8 9 10 11 13 13 14 15 16 16 15 14 15 15 14 13 13 12 13 16 16 16 16 13 9 9 12 13 13 13 13 16 18
13 13 13 13 15 17 20 20 17 17 17 17 14 11 12 12 9 9 8 8 10 11 9 10 11 9 7 9 9 9 8 7 6 5 5 4 3 4 3 4 3 4 4 5 6 6 6 6 7 7 8 8 9 10 11 12 13 13 14 16 16 16 15 14 14 14 13 14 14 14 14 16 15 13 14 14 9 8 9 9 12 12 12 14 16
12 13 13 14 16 17 18 18 17 18 18 16 16 14 9 8 9 8 8 8 9 10 8 8 8 7 8 9 9 8 7 6 6 5 5 4 4 3 3 4 4 4 5 6 7 7 7 7 7 8 8 9 9 10 11 12 12 13 14 16 16 16 15 14 13 13 14 13 13 14 15 15 14 11 13 14 10 8 8 9 11 11 11 12 12
12 13 14 16 18 19 20 20 18 18 18 15 18 18 11 11 15 11 8 10 10 11 10 7 8 9 9 9 8 6 6 6 6 5 4 4 4 3 4 4 5 5 5 6 7 8 7 7 8 8 8 9 9 10 10 11 12 13 14 15 16 16 15 15 13 13 15 14 14 15 14 14 13 12 15 17 12 8 9 9 11 12 14 15 14
12 12 14 16 16 17 20 21 20 19 19 15 15 16 12 13 17 14 11 11 11 13 12 8 8 10 9 9 6 5 6 6 6 6 5 4 4 3 4 4 5 5 5 6 7 8 8 8 8 8 9 9 9 10 10 11 12 13 13 14 16 15 16 17 14 14 17 17 17 17 16 16 15 15 15 15 12 12 12 9 10 13 13 15 17
11 11 13 13 13 15 18 21 22 21 19 17 16 17 16 14 14 14 14 13 13 14 11 9 9 9 9 8 6 6 7 7 7 6 5 5 4 4 5 5 5 5 6 7 8 8 8 8 8 8 9 9 9 10 11 11 12 13 13 14 15 15 17 17 16 16 18 19 19 19 18 18 18 18 16 15 18 19 16 10 11 14 11 12 17
11 12 13 13 14 16 19 21 23 22 20 19 19 20 22 20 18 18 18 15 14 13 11 10 9 8 8 7 7 8 8 8 8 7 5 5 5 6 6 6 6 6 7 7 8 8 8 8 8 8 9 9 10 10 11 11 12 13 14 15 16 16 18 18 17 18 19 20 20 19 20 19 18 19 18 17 19 19 17 13 11 13 13 12 14
12 13 13 14 16 18 19 20 23 25 23 22 20 20 22 23 22 21 20 17 13 11 11 11 9 8 7 8 8 9 9 8 7 7 6 6 7 7 7 6 6 7 7 7 7 8 8 8 8 9 10 10 10 11 11 11 12 14 14 15 16 16 17 18 18 18 19 19 19 18 19 18 18 19 18 17 17 16 17 17 13 10 10 10 11
13 13 13 15 17 19 19 19 22 25 25 23 21 20 21 21 21 19 18 16 14 12 12 11 9 8 8 8 9 9 10 9 8 7 7 8 8 8 8 7 7 7 7 7 8 8 9 9 9 10 11 10 11 12 12 12 13 14 14 14 15 15 15 17 17 17 18 18 18 19 19 18 18 19 18 17 18 17 17 18 16 11 8 8 9
13 13 13 14 16 17 18 18 20 23 23 22 21 20 20 19 19 18 17 15 14 12 12 10 9 9 9 10 10 10 10 9 9 9 9 9 9 8 9 9 8 7 7 8 9 9 9 10 10 11 12 11 11 12 12 13 13 13 13 14 16 15 14 16 17 17 17 18 18 19 19 18 19 20 19 18 18 19 18 18 19 18 13 9 8
14 15 14 14 15 17 17 18 19 21 23 22 21 20 20 19 19 18 16 15 13 12 11 10 10 10 10 11 11 10 10 9 10 10 10 9 9 9 9 9 8 8 8 9 9 10 10 11 11 12 13 12 12 13 12 13 13 13 13 14 15 16 15 16 17 17 17 18 19 20 19 18 20 20 19 19 19 19 20 19 20 22 18 11 9
15 16 15 13 14 17 18 19 19 20 22 22 21 21 21 20 18 17 15 14 12 11 11 10 10 10 11 11 11 10 10 10 10 10 10 10 10 10 9 9 9 9 10 10 10 11 11 11 12 12 12 12 12 13 13 13 13 13 14 15 16 17 16 16 18 18 17 18 19 21 20 20 21 21 20 20 20 19 20 20 20 22 20 16 14
14 15 15 12 15 19 19 19 19 20 21 22 21 21 21 20 19 17 14 13 11 10 10 10 10 10 11 11 10 10 10 11 11 11 10 11 11 10 10 10 10 10 11 11 11 11 11 11 11 11 12 12 13 13 13 13 14 14 15 15 16 17 17 16 18 18 18 18 20 21 21 21 22 22 21 21 21 21 20 20 20 21 21 20 20
15 15 15 14 16 19 19 19 20 22 22 22 22 21 20 19 18 16 14 13 11 10 10 9 10 10 10 10 10 10 11 11 11 11 11 12 11 10 10 10 11 11 11 11 11 11 11 11 11 11 12 12 12 13 13 13 14 15 15 15 15 17 17 17 17 19 19 19 20 21 22 22 22 22 22 22 23 22 21 21 20 20 21 20 22
15 15 15 14 17 20 21 21 22 22 21 22 22 21 20 18 17 16 14 13 11 10 9 9 10 10 10 10 11 12 12 12 12 12 12 12 11 10 10 10 11 12 12 11 10 10 10 10 10 11 12 12 12 13 13 14 14 15 15 14 15 16 17 17 18 19 19 20 20 21 22 23 23 22 22 22 24 23 22 22 22 20 21 21 22
15 15 13 14 19 21 21 22 22 21 21 22 21 20 19 18 17 15 14 12 10 9 9 9 10 10 10 11 13 14 13 13 13 13 12 12 11 11 11 11 11 11 11 11 10 10 9 11 12 12 11 12 12 13 13 14 14 14 15 15 15 15 16 17 17 17 18 19 20 22 23 23 23 23 22 22 24 24 22 22 22 21 20 20 21
15 14 12 14 19 20 19 22 22 22 23 23 20 19 18 17 16 15 13 12 10 9 9 10 10 11 11 13 15 15 14 14 13 13 12 12 12 12 12 11 11 11 11 10 10 11 10 12 13 12 11 12 12 12 13 14 14 14 14 14 15 15 15 16 16 16 17 18 19 21 22 23 23 24 23 22 24 25 23 22 22 22 20 19 20
15 15 14 15 18 18 19 22 22 23 23 21 20 19 18 16 15 15 13 12 10 10 10 11 11 12 13 15 16 15 14 14 13 13 12 12 12 12 12 12 11 11 11 10 11 12 11 11 11 11 11 11 11 11 12 13 14 14 14 14 14 14 15 15 15 16 16 17 17 19 21 23 23 24 25 24 24 25 24 23 23 22 21 19 19
17 16 15 16 17 17 20 21 21 22 22 21 20 19 17 16 15 14 13 11 11 10 10 11 13 14 15 16 16 15 14 14 13 13 13 12 12 12 12 12 11 11 12 12 11 12 12 11 12 13 12 11 11 11 12 14 13 13 14 13 13 13 14 14 15 15 16 16 16 17 19 21 22 22 24 25 25 25 25 26 24 23 22 21 20
16 16 16 16 17 17 20 22 22 22 22 21 20 19 18 17 15 14 12 11 11 10 11 12 14 15 16 16 15 14 13 13 13 13 12 12 12 12 13 12 12 12 12 12 12 12 13 12 12 13 13 13 13 12 12 14 14 13 13 13 13 13 13 14 15 15 15 15 16 16 17 18 19 20 22 24 25 24 24 26 26 24 23 21 20
14 16 17 17 17 17 20 22 22 22 22 20 19 18 18 17 16 14 12 11 11 11 12 14 15 16 16 16 15 14 13 13 14 13 13 12 13 13 13 13 13 13 13 13 13 13 13 13 13 14 14 14 15 14 14 15 14 13 13 13 14 14 13 14 14 15 15 15 15 16 16 15 16 19 21 24 25 24 23 26 28 26 24 22 20
16 16 16 17 17 17 19 22 23 22 21 20 19 19 18 17 16 14 12 11 11 12 13 14 15 15 17 17 16 14 14 14 14 14 13 13 13 13 13 13 13 13 13 13 13 13 13 14 14 14 15 16 17 17 16 15 15 14 13 13 14 14 14 14 14 14 15 16 15 15 15 16 16 17 19 21 23 24 23 24 27 28 26 24 22
16 16 16 15 16 18 20 23 24 23 20 18 18 18 17 17 16 14 13 12 12 13 14 15 14 15 17 17 15 15 15 15 15 14 14 14 14 14 14 14 14 14 14 13 13 13 13 14 14 15 15 17 18 17 16 15 15 15 13 13 14 14 14 14 14 14 15 16 16 15 15 16 17 16 16 17 17 20 23 22 25 29 28 26 25
17 17 17 17 17 18 20 22 24 22 20 18 18 17 17 17 16 16 15 14 14 15 15 15 15 16 16 16 16 16 16 16 15 14 14 14 14 14 14 14 15 14 14 13 13 13 13 14 14 15 15 16 17 17 17 17 17 16 15 14 14 15 15 15 15 15 15 16 16 17 16 15 17 17 16 16 13 14 20 20 21 28 29 28 27
15 16 17 18 18 15 15 18 21 21 20 20 20 19 18 16 15 17 18 16 16 17 16 16 17 17 17 16 16 17 17 16 16 15 14 15 14 14 14 15 15 15 14 13 13 13 14 14 14 15 15 15 16 17 17 17 17 17 16 15 15 16 16 16 16 15 16 17 17 18 17 16 18 18 18 18 13 9 15 18 17 22 27 27 26
12 14 16 16 16 16 17 19 21 22 22 22 22 20 18 16 16 17 17 17 17 17 17 18 18 18 17 17 17 17 17 16 16 15 15 15 15 15 15 16 16 15 14 14 14 14 14 14 14 15 14 14 16 17 16 17 16 16 16 15 15 16 17 17 17 16 16 17 17 18 18 18 19 19 20 21 17 11 13 17 16 18 22 23 23
13 16 17 17 17 18 21 22 22 22 22 22 20 19 18 17 17 17 16 17 17 17 18 19 19 18 18 17 17 17 17 17 16 16 16 16 16 16 16 16 16 15 14 14 14 14 14 14 14 13 13 13 13 14 13 14 15 15 15 14 13 15 17 19 19 18 17 17 17 18 19 19 19 20 20 22 20 16 14 15 16 16 18 19 18
16 17 19 20 21 21 22 23 22 22 22 20 19 19 18 18 17 17 17 17 18 18 18 19 19 19 18 18 18 18 17 17 17 16 16 16 16 16 16 16 16 15 14 14 14 14 14 14 13 12 12 11 10 9 10 11 11 12 13 13 12 13 15 17 19 20 20 19 18 17 18 19 20 20 20 19 20 18 15 14 16 17 18 17 15
18 19 20 21 23 23 24 24 23 22 21 20 19 19 19 18 18 18 18 18 19 19 19 19 19 19 18 18 18 18 18 18 17 17 16 16 16 16 16 16 16 14 13 13 13 13 13 13 13 12 11 11 8 7 8 9 9 10 11 12 12 12 13 14 16 19 21 22 21 19 18 19 20 21 20 19 19 19 16 15 16 16 18 19 15
20 23 23 23 24 25 25 25 24 23 21 20 20 19 19 19 18 18 19 19 19 19 19 20 19 19 18 18 18 19 19 18 18 17 16 15 15 16 16 16 15 14 13 13 13 13 13 13 13 12 11 11 9 7 7 9 9 9 10 10 10 11 12 13 14 15 18 21 23 22 20 21 22 22 20 19 20 20 17 16 17 16 18 20 19
22 25 26 26 26 26 26 25 24 23 22 21 20 19 19 19 19 20 20 20 20 20 20 20 19 19 19 18 18 19 19 19 17 16 15 15 15 16 16 16 15 14 13 13 13 13 14 14 14 13 12 12 11 7 7 8 8 9 11 10 9 9 10 11 12 13 14 17 20 21 22 22 23 23 22 21 22 21 19 17 17 17 17 20 21
24 25 27 28 28 27 26 25 25 24 23 22 21 20 19 19 19 20 20 20 20 20 20 20 20 20 19 19 18 18 18 18 17 16 15 15 15 16 17 16 15 14 14 13 13 13 14 13 13 13 12 12 12 10 8 7 7 9 11 10 9 9 10 10 11 12 13 14 16 18 21 22 23 23 23 23 24 23 20 18 18 17 17 18 19
25 25 26 27 28 28 27 25 25 24 23 22 21 20 19 19 20 21 20 20 20 21 21 20 20 20 19 19 18 18 18 17 16 16 15 14 15 16 16 15 14 13 13 13 13 13 13 13 12 11 12 12 12 12 11 9 7 9 11 11 9 9 10 10 10 11 12 12 13 15 19 22 24 24 24 25 25 24 22 20 20 19 18 19 18
24 25 27 27 26 27 27 25 24 24 23 22 21 20 20 20 21 21 20 20 20 21 21 21 20 20 20 19 18 17 17 17 16 16 14 14 15 16 15 14 14 14 14 14 13 14 14 13 12 12 13 13 13 13 13 12 10 8 10 12 11 10 10 10 10 11 12 12 13 13 17 22 25 26 26 26 27 26 23 22 22 22 20 18 17
23 25 28 27 25 26 25 24 24 24 23 21 20 20 20 20 21 22 21 21 21 22 22 21 21 20 19 19 18 17 17 16 15 15 14 14 15 15 15 14 14 14 14 13 13 13 13 13 12 12 13 13 14 15 15 14 13 10 11 13 13 12 11 10 10 11 11 12 12 12 15 20 22 23 25 25 26 27 25 24 24 23 21 19 17
23 25 27 27 26 27 25 24 24 23 21 20 20 20 20 20 22 23 22 21 22 22 22 21 21 20 19 18 18 17 16 16 15 14 14 15 16 15 14 14 14 14 13 13 12 12 12 12 12 12 12 12 13 16 17 16 14 12 11 12 13 13 13 12 11 11 11 11 11 12 14 16 17 18 20 22 23 24 24 25 24 22 21 20 17
25 25 26 25 26 27 25 24 24 22 20 20 19 20 21 21 23 23 21 21 23 23 22 21 20 19 19 18 17 16 16 15 14 14 15 16 16 15 14 14 13 13 12 12 12 11 11 11 11 11 11 11 11 15 18 18 16 14 13 13 13 14 14 13 12 12 12 12 11 12 13 15 16 16 16 18 19 19 21 23 23 22 21 20 19
26 26 26 26 26 27 26 24 23 22 20 20 19 21 23 23 23 23 22 22 23 22 22 21 19 18 18 17 17 16 16 15 14 14 15 16 15 14 13 12 11 11 11 11 11 11 10 11 11 10 10 10 10 11 14 16 16 16 17 16 16 15 14 14 14 13 13 13 13 13 13 13 14 14 14 15 17 18 18 19 21 21 21 21 20
27 26 27 27 27 26 25 25 23 21 20 19 19 22 24 24 24 24 24 23 22 21 21 20 19 18 17 17 17 16 15 14 13 14 14 14 13 12 12 11 10 10 10 10 10 11 11 10 10 10 10 9 8 8 7 7 8 10 11 11 12 12 11 11 12 11 11 12 12 12 12 12 12 12 12 13 15 18 18 17 18 19 20 21 21
27 26 27 28 28 26 26 25 23 21 19 19 21 22 23 24 24 24 24 24 22 21 20 20 20 20 18 17 17 16 15 14 14 13 13 12 12 12 11 10 9 9 10 10 10 10 10 10 10 9 9 8 7 7 5 3 2 3 4 4 5 6 5 4 6 7 8 8 9 10 10 11 12 11 11 11 12 15 17 17 17 17 18 19 20
26 25 25 27 28 28 28 26 24 21 20 21 23 24 24 24 25 24 24 24 23 21 21 21 21 19 18 18 17 16 15 15 13 13 12 10 10 10 10 9 8 7 8 9 11 10 10 10 10 9 9 9 8 6 5 4 3 3 3 3 3 4 5 4 5 6 5 6 7 9 9 10 11 11 11 11 12 13 15 16 17 17 17 17 18
28 27 27 28 29 29 28 26 24 22 23 24 24 25 25 25 25 25 25 25 23 22 22 22 20 18 18 18 16 15 15 14 14 15 14 12 10 11 11 11 10 8 7 9 11 10 9 9 10 9 9 9 9 8 7 6 4 3 3 4 4 4 6 7 7 8 7 6 7 8 9 9 10 11 11 11 12 12 13 14 15 16 16 17 17
26 26 25 26 28 29 28 25 24 24 24 25 25 25 25 24 24 25 25 25 24 23 22 21 19 18 18 17 15 14 14 13 14 15 16 16 15 14 13 12 11 10 9 11 13 12 10 11 12 12 11 12 12 11 10 9 7 6 6 6 7 7 8 9 8 9 9 7 7 8 9 9 10 11 11 11 11 12 12 13 13 14 15 16 16
26 25 25 25 26 26 25 24 24 24 24 25 26 25 24 23 23 25 26 26 25 23 21 20 19 19 18 16 14 14 14 14 14 15 14 15 16 15 14 12 11 10 10 12 13 12 12 14 15 14 14 14 14 13 12 10 10 9 8 9 10 11 11 10 9 8 7 6 7 7 8 8 9 10 10 10 11 11 11 12 12 13 13 14 15
Wind_Direction
50 71 79 73 63 89 118 119 122 127 137 149 153 154 155 150 145 146 149 156 160 155 160 166 167 182 186 189 198 187 159 141 131 126 118 113 110 104 97 85 65 46 25 8 353 343 343 340 336 334 330 327 324 320 318 317 317 316 316 314 311 309 307 305 305 304 300 297 295 293 290 285 276 266 263 264 262 262 265 266 263 260 257 252 249
115 93 99 107 113 126 120 106 106 111 143 155 145 149 146 141 149 159 162 170 169 157 158 165 176 204 208 198 188 171 149 134 126 121 112 109 107 97 88 75 58 47 30 9 359 349 344 337 333 331 326 324 322 319 317 316 316 317 318 316 314 313 309 308 309 306 302 304 305 300 296 292 284 270 262 261 259 258 263 268 267 265 262 257 254
134 119 116 123 135 136 117 113 123 139 161 153 144 157 147 145 157 164 165 174 177 164 160 163 186 221 218 201 174 140 119 116 117 116 110 106 101 90 79 70 59 53 37 13 2 349 339 334 331 328 326 325 322 320 320 318 318 319 318 317 316 314 310 308 313 315 312 311 308 301 304 307 299 288 278 272 271 267 265 268 267 264 264 263 260
138 135 128 126 137 137 115 117 137 154 160 152 154 157 144 147 154 161 167 174 176 164 158 154 173 219 210 179 139 119 111 112 113 112 108 105 98 87 78 70 60 48 28 10 356 343 338 335 333 331 331 331 326 323 321 320 322 322 321 321 317 315 313 312 316 321 319 313 310 303 303 305 300 312 321 304 290 276 264 265 265 263 263 264 262
149 146 147 147 145 142 131 128 142 151 147 152 167 159 146 152 153 163 169 174 172 157 154 146 154 211 192 140 124 122 123 126 124 121 117 113 105 93 79 64 51 38 18 5 352 343 345 340 339 340 335 333 329 326 323 322 323 323 324 323 318 314 313 313 317 324 325 314 304 302 302 301 302 317 318 306 299 285 267 266 267 265 265 265 267
154 151 157 157 141 135 138 142 148 147 145 156 169 156 148 154 155 165 167 173 170 157 154 147 161 218 201 146 138 135 133 133 127 124 121 116 108 98 81 58 39 28 14 4 358 352 354 349 346 344 336 333 329 323 320 319 322 324 324 322 316 316 316 315 317 324 332 325 310 304 307 303 299 309 314 306 306 300 287 278 276 278 276 271 270
158 155 154 156 144 137 144 154 159 159 155 152 153 150 156 159 157 165 168 167 164 157 154 149 180 225 212 150 143 137 130 125 114 108 106 109 108 96 77 58 37 31 25 11 14 8 2 357 348 345 337 333 330 324 322 322 325 326 324 321 318 320 323 320 322 329 334 334 328 317 310 310 306 302 302 305 305 303 304 297 289 289 285 277 271
161 159 151 155 154 145 149 159 162 158 148 138 137 148 165 164 156 166 174 163 159 158 153 155 197 221 186 132 125 117 116 113 112 114 108 107 99 84 69 57 39 35 34 21 23 15 4 360 350 348 342 337 336 331 330 329 328 329 325 322 323 325 329 328 330 335 335 333 332 323 315 318 316 302 294 297 301 304 308 305 302 299 285 281 278
162 160 153 151 154 153 150 152 150 141 133 128 129 144 166 163 148 161 174 161 156 155 156 174 198 197 146 125 113 104 108 112 120 130 121 109 87 78 73 59 45 43 39 28 26 16 7 5 356 354 349 345 343 337 337 334 332 333 328 326 328 329 333 336 334 333 333 332 332 330 324 323 323 312 302 303 303 303 305 304 313 311 291 284 282
163 154 152 148 149 152 146 142 136 128 125 128 137 147 155 150 143 157 162 157 165 157 158 181 172 139 120 112 103 106 120 127 129 128 116 106 94 84 74 61 53 48 39 31 26 16 13 13 5 2 356 352 349 344 343 340 336 336 332 331 335 335 336 340 336 332 333 333 336 336 332 330 331 332 332 331 323 309 304 306 312 312 305 294 284
165 152 152 149 144 147 143 138 131 124 124 136 152 152 146 150 149 155 165 160 160 148 145 159 133 113 104 94 96 115 128 135 133 125 117 111 103 90 78 68 58 49 40 32 26 18 17 17 11 8 4 359 355 351 348 344 340 339 337 338 340 342 344 344 341 336 336 341 345 344 337 333 332 334 338 336 330 322 318 315 312 309 307 300 292
163 157 155 150 146 152 147 138 135 129 126 138 153 144 142 157 149 151 172 161 142 140 145 150 121 99 93 91 99 120 127 133 131 124 121 111 99 89 82 72 62 51 42 34 25 19 19 19 15 12 9 5 360 357 352 347 343 340 341 343 345 347 349 349 349 344 345 352 352 349 341 333 335 338 333 328 330 331 322 314 318 317 307 298 297
163 161 156 151 152 156 150 144 143 134 130 145 153 142 146 164 157 153 163 153 144 149 148 136 110 94 98 106 112 123 123 124 126 126 118 102 90 84 76 68 63 52 43 36 24 21 22 20 18 16 13 9 5 3 358 353 350 344 344 350 353 352 351 353 357 355 357 0 355 352 346 340 343 347 339 334 340 337 325 319 324 323 315 307 304
171 167 156 155 156 156 153 151 147 138 144 159 156 147 152 164 167 161 158 152 148 146 130 115 107 106 116 119 120 125 122 117 117 113 101 90 87 85 78 70 63 51 44 38 26 25 28 25 23 22 17 13 10 7 3 0 354 349 352 359 359 355 356 1 5 4 6 4 359 354 348 345 347 349 345 339 340 339 335 332 325 321 322 322 319
177 171 161 160 158 157 157 157 149 143 152 160 155 151 153 157 162 161 155 147 138 129 121 117 115 115 116 117 121 123 118 115 108 97 89 85 86 86 81 74 65 55 47 40 34 31 32 31 28 25 20 16 12 10 8 3 356 358 5 7 4 360 2 6 8 8 7 4 1 357 350 348 348 347 345 339 335 336 335 330 321 320 329 330 331
176 168 161 159 157 159 161 159 149 145 150 153 151 152 150 152 157 151 139 131 128 128 125 120 117 115 111 111 117 117 112 110 102 97 97 92 90 86 80 77 71 62 52 44 41 37 36 35 30 27 23 17 15 14 13 6 4 11 13 11 9 6 7 11 10 9 8 5 3 0 355 352 350 347 344 341 338 335 332 329 324 320 326 330 331
171 161 157 155 157 161 159 154 148 146 147 145 145 147 146 147 146 136 126 125 128 127 121 117 115 112 110 109 113 113 108 102 100 101 101 96 90 85 80 76 70 65 57 51 47 42 40 38 33 29 23 20 20 21 20 17 16 21 18 15 14 10 11 15 12 10 10 8 6 4 1 357 354 351 347 346 343 338 336 334 332 331 337 340 330
163 154 154 154 157 160 155 152 150 148 143 139 140 142 142 140 134 128 128 128 126 121 118 119 117 113 110 110 111 110 104 103 105 104 100 93 87 85 81 74 69 66 62 56 51 46 43 41 39 34 29 28 28 26 26 24 24 25 21 19 17 14 17 18 15 14 12 10 8 7 6 3 359 356 353 351 349 345 342 338 336 338 343 350 343
160 154 156 158 158 159 157 154 152 148 140 137 138 139 138 135 129 128 129 126 123 122 120 118 116 115 113 110 108 104 102 106 108 104 95 89 86 84 79 75 73 68 64 60 55 52 49 46 43 39 36 34 31 28 27 25 26 25 22 22 21 20 22 21 19 18 15 12 11 9 9 6 1 360 359 358 356 353 349 344 344 343 344 351 352
162 157 158 162 160 158 155 151 148 143 137 135 134 133 132 130 129 130 128 125 124 122 120 117 116 117 116 112 108 104 105 109 106 100 92 89 88 84 78 77 74 68 65 63 60 58 55 50 44 39 37 33 30 29 26 25 27 27 26 26 25 25 26 25 23 22 20 17 13 12 11 8 5 4 2 2 1 358 355 353 354 350 348 350 347
163 160 162 163 162 158 151 146 143 139 137 136 134 132 131 131 132 133 131 129 127 122 119 119 118 119 117 115 113 111 111 110 104 98 93 90 88 84 82 80 75 71 68 66 64 60 55 50 44 38 35 33 31 30 28 28 29 29 31 30 27 28 29 28 25 24 23 20 15 14 14 11 9 8 5 5 4 2 2 1 1 359 354 352 350
163 163 164 161 160 156 148 146 144 139 139 140 136 134 135 136 135 133 131 129 127 124 123 122 122 121 117 118 120 117 113 109 103 98 94 91 89 87 85 81 78 74 71 69 65 59 54 50 46 41 35 33 33 34 33 34 33 32 33 32 30 29 28 28 28 25 23 21 18 17 16 13 11 9 9 9 7 5 6 6 6 5 359 358 3
160 162 163 158 156 153 146 146 145 141 141 140 137 137 138 139 137 133 130 130 128 128 127 127 128 124 121 124 124 120 114 110 106 99 94 91 90 88 85 83 82 77 74 72 65 60 53 47 50 48 38 38 40 39 39 38 37 36 34 33 33 31 30 29 29 26 23 23 22 21 20 15 12 12 11 11 9 7 7 10 11 10 5 5 12
157 156 154 150 148 146 145 145 145 145 145 142 140 140 140 140 137 132 130 130 128 129 131 133 130 126 126 126 124 120 116 112 106 98 96 95 92 90 87 85 85 80 78 72 60 59 55 47 50 50 44 45 45 41 42 40 37 35 32 33 33 31 32 32 30 29 28 25 24 24 23 19 17 17 14 10 9 8 8 9 10 10 10 11 15
158 154 148 145 145 148 149 148 148 150 150 147 144 142 142 141 135 131 131 132 130 130 134 135 132 129 129 127 124 120 116 111 105 99 99 99 95 92 90 87 86 82 78 71 61 60 59 51 50 52 49 46 41 38 39 37 35 34 30 31 32 31 32 31 31 34 34 31 29 29 25 23 22 22 19 14 11 10 10 8 6 7 8 8 12
158 154 152 151 150 153 152 149 151 153 151 149 145 143 142 139 133 131 133 134 134 135 138 139 139 137 133 129 126 121 115 111 106 103 102 101 98 95 93 90 88 85 80 77 72 67 64 58 54 52 49 41 35 33 31 29 32 34 32 31 31 33 35 33 33 36 37 36 33 32 29 27 27 26 24 21 16 14 14 11 7 4 4 5 7
154 153 158 157 155 155 151 150 152 152 149 147 145 144 142 137 133 133 135 135 137 141 142 142 143 141 136 131 126 120 115 111 106 106 106 103 100 98 96 94 92 89 85 80 77 72 67 64 59 54 49 43 39 41 42 38 35 33 35 35 32 34 37 37 36 36 38 39 37 33 29 26 27 27 26 24 22 19 17 14 11 5 4 6 7
157 157 161 159 155 152 147 147 149 149 148 145 143 141 140 137 135 134 135 136 140 144 146 146 146 143 138 133 127 119 115 111 108 108 108 106 104 101 100 99 96 91 87 82 79 75 70 66 62 56 52 50 50 53 56 51 40 34 37 39 35 35 37 40 41 37 36 37 37 34 31 26 23 25 28 28 27 26 23 20 16 11 8 9 10
167 162 162 160 155 150 147 147 146 145 143 139 138 140 141 139 136 135 138 141 145 149 149 148 146 143 139 134 127 120 116 113 111 111 111 109 107 106 104 102 98 93 88 84 81 77 73 69 65 60 56 56 57 57 57 52 45 41 42 43 42 40 40 42 42 39 37 35 34 33 32 27 20 18 23 26 30 33 33 30 27 21 17 15 14
167 162 162 157 151 148 147 146 145 143 140 135 137 141 141 139 137 138 143 147 149 151 151 149 146 143 141 134 126 122 119 116 115 115 115 113 110 110 107 103 100 95 89 86 83 78 75 71 68 63 59 59 62 62 63 62 57 54 50 47 45 43 43 42 39 38 36 33 31 30 28 26 22 16 12 12 21 32 32 31 35 32 27 26 22
164 161 158 152 149 149 146 145 145 142 135 130 134 137 135 136 139 143 147 150 152 151 150 149 147 144 140 134 127 125 122 120 120 119 119 118 115 112 109 104 100 95 90 88 85 80 77 74 70 66 61 61 65 69 71 69 66 63 58 51 47 45 43 41 39 37 35 31 29 26 23 23 21 17 12 3 0 23 27 24 33 38 35 33 30
162 157 153 148 145 140 133 133 135 131 127 128 132 133 132 133 135 139 144 148 149 150 150 148 146 143 139 134 130 127 125 124 125 124 122 121 118 115 110 105 100 96 93 90 86 82 80 76 73 70 64 62 68 73 74 70 67 65 62 56 51 48 44 41 39 38 35 31 28 25 24 23 19 17 18 10 355 6 27 21 25 38 37 34 34
154 152 149 140 130 125 124 129 130 130 132 135 136 136 138 138 136 140 145 147 147 150 152 149 146 143 140 136 133 130 129 128 127 127 126 123 120 116 111 104 100 98 95 92 88 85 82 78 75 72 67 65 71 74 72 69 67 66 65 62 56 52 49 45 41 39 35 32 29 26 24 23 20 18 21 20 11 9 26 25 22 31 34 30 32
153 152 148 138 134 136 137 138 138 137 140 142 142 142 143 142 142 145 148 149 150 152 152 149 146 144 141 138 135 133 131 130 129 129 128 125 122 117 111 106 103 101 97 93 89 86 82 79 77 74 68 68 73 74 71 69 69 67 66 64 60 57 54 49 45 41 37 33 30 27 27 23 20 21 22 22 19 17 23 29 26 26 29 28 32
154 150 147 145 146 146 146 145 143 142 145 145 143 143 143 143 146 149 149 150 151 151 151 149 146 143 141 139 137 134 131 131 132 131 129 127 123 118 112 108 105 102 99 95 90 86 83 79 77 75 69 63 66 73 70 67 70 72 70 66 62 60 58 53 49 45 40 37 33 29 28 25 21 22 24 24 23 21 21 28 30 29 28 27 31
155 149 150 150 149 148 149 149 147 147 148 146 144 145 145 147 149 150 150 151 151 150 148 147 145 144 143 141 139 136 133 133 134 133 131 128 124 118 112 108 105 102 99 96 92 87 84 80 76 75 68 59 58 73 74 67 70 73 72 69 65 62 60 56 53 50 45 42 41 37 32 26 22 24 28 30 30 28 26 27 29 30 31 27 26
149 148 149 148 149 150 150 149 147 148 148 147 148 148 146 148 150 150 151 151 151 150 148 146 144 143 142 142 140 137 136 136 135 133 130 127 122 116 112 108 106 103 100 98 94 88 84 81 76 73 68 58 55 70 75 70 72 67 62 67 69 66 65 61 57 54 50 45 44 44 41 35 30 29 32 35 37 34 29 29 29 29 32 32 27
145 150 151 151 153 152 149 148 148 148 149 148 148 149 149 150 151 151 152 153 151 149 147 145 143 142 142 141 140 139 137 136 134 131 128 125 121 115 112 109 108 106 104 100 97 92 86 83 76 71 68 60 55 67 77 71 71 66 61 67 72 67 66 65 61 59 55 50 45 44 46 45 40 37 38 40 42 38 30 27 28 27 29 31 27
152 157 153 148 149 149 147 147 147 147 149 149 148 150 151 151 152 153 153 153 151 149 147 145 143 142 141 140 139 139 138 135 132 129 126 124 121 115 112 111 110 109 107 103 101 98 91 86 79 71 67 60 54 60 72 75 72 68 64 66 72 70 66 64 64 61 57 54 47 44 48 50 48 45 44 44 44 40 32 26 25 26 23 17 16
158 156 145 138 143 149 150 149 148 147 148 149 150 151 152 151 152 152 152 152 151 148 146 144 142 141 140 139 139 138 135 133 130 127 126 125 121 116 113 115 114 112 110 106 102 100 94 89 83 73 67 63 56 53 60 73 79 73 67 66 67 65 63 62 62 61 58 55 50 45 47 51 51 49 47 45 43 40 34 27 23 21 14 7 10
156 149 141 139 145 152 151 148 147 148 148 150 152 152 152 151 151 150 149 149 148 146 145 144 142 141 140 138 138 134 131 129 127 126 128 126 120 116 114 115 114 111 111 110 106 104 98 92 86 77 71 70 68 61 60 66 73 78 77 73 62 51 55 65 66 62 58 56 54 48 47 51 53 49 46 44 42 39 35 30 25 21 15 14 20
143 138 142 147 151 153 149 146 147 149 150 152 152 151 152 152 150 149 148 147 146 145 144 143 141 140 139 135 132 129 127 126 126 129 130 123 116 115 114 116 116 115 115 116 113 110 106 100 94 84 74 70 70 70 68 66 69 77 85 84 74 64 63 69 69 65 62 61 58 54 50 50 49 44 41 39 39 37 34 31 29 26 23 25 29
132 138 146 152 153 150 147 146 149 152 152 153 153 151 152 152 151 150 148 146 146 144 142 141 140 138 135 130 128 127 127 127 130 133 129 120 115 116 116 118 120 120 120 121 119 117 114 109 103 95 85 76 68 68 69 68 68 74 83 88 87 81 76 74 72 69 66 64 59 53 48 45 40 34 31 30 31 33 33 30 29 27 26 27 30
140 147 152 154 151 148 147 148 151 154 153 154 155 153 152 152 151 150 145 140 142 144 141 140 138 134 130 127 128 128 126 128 133 133 124 117 117 119 122 125 128 128 128 128 126 125 122 116 112 106 99 91 80 71 67 66 68 75 82 86 88 86 80 74 73 72 69 67 63 54 46 40 35 31 28 24 22 25 29 30 29 28 28 29 29
148 153 155 155 151 149 150 152 155 156 154 154 156 154 152 152 152 151 145 138 139 140 136 133 132 129 129 130 129 127 128 132 136 130 122 120 123 126 129 132 135 136 136 134 132 128 123 119 117 115 111 108 101 87 72 64 65 69 70 70 72 76 78 79 80 79 73 65 57 48 39 33 30 30 30 26 23 22 25 29 29 29 30 30 28
154 157 157 156 153 152 153 155 157 157 154 154 156 155 153 151 151 151 150 146 142 136 131 131 132 131 131 131 130 130 133 136 134 127 122 124 127 131 134 137 139 139 136 135 132 129 126 121 118 119 121 120 119 114 100 79 66 60 53 48 49 54 64 75 76 67 53 43 36 32 30 26 23 25 28 27 25 23 24 27 29 30 32 31 29
160 161 158 155 153 154 157 157 157 156 155 156 156 154 153 152 150 151 151 149 146 139 134 134 134 134 134 133 132 135 138 137 132 127 125 127 132 135 133 131 133 137 138 136 133 128 126 124 122 122 123 120 116 113 105 93 85 63 42 40 40 32 30 46 53 42 27 16 13 15 22 25 21 20 25 28 25 24 26 27 27 29 30 31 30
159 160 162 159 156 158 159 157 156 156 156 155 153 153 152 151 151 151 150 149 146 141 136 134 135 136 136 134 137 143 143 137 127 118 113 120 134 133 117 98 94 107 128 139 139 133 130 129 127 126 126 118 104 89 76 72 80 68 52 63 65 39 28 41 57 49 25 6 11 17 21 26 25 23 26 28 24 25 28 27 26 27 27 28 28
157 163 169 164 160 161 161 157 155 155 153 152 152 152 152 151 152 153 151 147 143 138 134 135 136 135 134 136 144 151 146 133 117 103 94 94 106 115 109 97 89 87 101 122 125 120 119 119 111 108 118 118 104 94 102 115 117 107 89 93 98 82 73 77 73 56 31 16 27 33 29 29 29 26 25 25 23 23 25 26 26 26 26 25 25
157 160 166 164 159 159 161 159 156 154 152 151 151 152 153 152 152 152 149 143 137 134 133 133 134 133 135 142 149 150 142 131 120 111 101 93 95 106 115 114 107 98 101 115 116 108 107 112 106 99 110 121 118 114 120 123 121 119 114 111 115 114 104 93 78 59 45 39 40 37 32 33 32 28 24 23 22 21 21 23 25 25 25 25 24
160 155 157 157 152 150 152 155 154 153 153 152 152 154 155 151 148 147 145 139 135 133 132 132 134 137 142 148 151 146 140 135 132 129 119 107 102 104 109 114 118 117 117 122 124 120 120 123 120 113 114 120 122 122 121 118 114 111 107 106 107 104 94 82 64 47 42 47 48 41 36 35 34 32 26 22 22 22 19 20 23 22 23 24 22